Location: Hungerford
(51.4167°N, 1.5167°W)
Time: 08:02:42
(UTC+00:00)

Cosmos 1048 Rocket - Pass Details

Date: 25 January 2021
Orbit: 744 x 791 km, 74.0° (Epoch: 24 February)

Event Time Altitude Azimuth Distance (km) Brightness Sun altitude
Rises 20:29:49 0° 329° (NNW) 3,197 7.8 -34.8°
Reaches altitude 10° 20:32:20 10° 320° (NW) 2,271 7.0 -35.2°
Enters shadow 20:35:40 30° 286° (WNW) 1,335 5.7 -35.7°
